Location: Berlise
(49.6641°N, 4.1077°E)
Time: 19:17:30
(UTC+00:00)

Cosmos 1943 Rocket - Pass Details

Date: 27 January 2021
Orbit: 810 x 845 km, 71.0° (Epoch: 27 February)

Event Time Altitude Azimuth Distance (km) Brightness Sun altitude
Exits shadow 06:32:34 - 317° (NW) 2,794 4.4 -8.3°
Reaches altitude 10° 06:33:34 10° 312° (NW) 2,472 4.1 -8.1°
Maximum altitude 06:38:14 27° 256° (WSW) 1,567 3.2 -7.4°
Drops below altitude 10° 06:42:54 10° 201° (SSW) 2,462 4.6 -6.7°
Sets 06:45:40 0° 189° (S) 3,391 5.5 -6.3°
